Lexington, NE

9:09 AM CDT on March 30, 2017 (GMT -0500)
Kelly

Weather History for KLXN - May, 2013

Change the Weather History Date:

Wednesday, May 15, 2013

  Actual Average Record
Temperature  
Mean Temperature 70 °F -  
Max Temperature 81 °F 69 °F 87 °F (2001)
Min Temperature 58 °F 45 °F 30 °F (2014)
Cooling Degree Days 4    
Growing Degree Days 20 (Base 50)    
Moisture  
Dew Point 42 °F    
Average Humidity 37    
Maximum Humidity 59    
Minimum Humidity 24    
Precipitation  
Precipitation 0.00 in - - ()
Sea Level Pressure  
Sea Level Pressure 29.86 in    
Wind  
Wind Speed 14 mph (ENE)    
Max Wind Speed 25 mph    
Max Gust Speed 32 mph    
Visibility 10 miles    
Events      
Averages and records for this station are not official NWS values.
T = Trace of Precipitation, MM = Missing Value Source: NWS Daily Summary

Daily Weather History Graph

Daily Weather History Graph

Search for Another Location

Airport or City:

Trip Planner

Search our weather history database for the weather conditions in past years. The results will help you decide how hot, cold, wet, or windy it might be!

Date:

Astronomy

May. 15, 2013 Rise Set
Actual Time 6:21 AM CDT 8:49 PM CDT
Civil Twilight 5:50 AM CDT 9:21 PM CDT
Nautical Twilight 5:11 AM CDT 10:00 PM CDT
Astronomical Twilight 4:28 AM CDT 10:43 PM CDT
Moon 10:59 AM CDT (5/15) 12:37 AM CDT (5/15)
Length of Visible Light 15h 30m
Length of Day
14h 28m
Waxing Crescent, 27% of the Moon is Illuminated
May 15
Waxing Crescent
May 17
First Quarter
May 24
Full
May 31
Last Quarter
Jun 8
New

Hourly Weather History & Observations

Time (CDT) Temp. Dew Point Humidity Pressure Visibility Wind Dir Wind Speed Gust Speed Precip Events Conditions
12:15 AM 73.4 °F 42.3 °F 33% 29.83 in 10.0 mi ENE 17.3 mph - N/A   Clear
12:35 AM 71.6 °F 41.9 °F 34% 29.83 in 10.0 mi ENE 16.1 mph - N/A   Clear
12:55 AM 70.0 °F 42.8 °F 37% 29.85 in 10.0 mi East 11.5 mph - N/A   Clear
1:15 AM 68.7 °F 43.2 °F 40% 29.85 in 10.0 mi East 10.4 mph - N/A   Clear
1:35 AM 66.2 °F 43.7 °F 44% 29.85 in 10.0 mi East 9.2 mph - N/A   Clear
1:55 AM 64.4 °F 44.1 °F 48% 29.85 in 10.0 mi East 8.1 mph - N/A   Clear
2:15 AM 63.5 °F 44.1 °F 49% 29.85 in 10.0 mi East 6.9 mph - N/A   Clear
2:35 AM 60.4 °F 44.8 °F 56% 29.86 in 10.0 mi North 5.8 mph - N/A   Clear
2:55 AM 60.1 °F 44.2 °F 56% 29.87 in 10.0 mi North 5.8 mph - N/A   Clear
3:15 AM 59.0 °F 44.6 °F 59% 29.86 in 10.0 mi NE 4.6 mph - N/A   Clear
3:35 AM 59.0 °F 44.1 °F 58% 29.86 in 10.0 mi NNE 3.5 mph - N/A   Clear
3:55 AM 58.6 °F 43.7 °F 58% 29.87 in 10.0 mi North 8.1 mph - N/A   Clear
4:15 AM 59.7 °F 42.8 °F 54% 29.86 in 10.0 mi NE 8.1 mph - N/A   Clear
4:35 AM 59.2 °F 42.3 °F 53% 29.88 in 10.0 mi NNE 4.6 mph - N/A   Clear
4:55 AM 58.8 °F 42.1 °F 54% 29.88 in 10.0 mi Calm Calm - N/A   Clear
5:15 AM 59.7 °F 40.3 °F 49% 29.87 in 10.0 mi NE 8.1 mph - N/A   Clear
5:35 AM 59.4 °F 39.9 °F 49% 29.87 in 10.0 mi ENE 8.1 mph - N/A   Clear
5:55 AM 59.4 °F 39.2 °F 47% 29.87 in 10.0 mi NE 9.2 mph - N/A   Clear
6:15 AM 59.9 °F 38.8 °F 46% 29.86 in 10.0 mi ENE 11.5 mph - N/A   Clear
6:35 AM 61.0 °F 38.3 °F 43% 29.85 in 10.0 mi ENE 13.8 mph - N/A   Clear
6:55 AM 61.9 °F 37.9 °F 41% 29.86 in 10.0 mi NE 18.4 mph 23.0 mph N/A   Clear
7:15 AM 61.7 °F 39.2 °F 43% 29.86 in 10.0 mi NE 18.4 mph 25.3 mph N/A   Clear
7:35 AM 61.7 °F 39.4 °F 44% 29.87 in 10.0 mi ENE 20.7 mph - N/A   Clear
7:55 AM 62.1 °F 40.5 °F 45% 29.88 in 10.0 mi ENE 18.4 mph 26.5 mph N/A   Clear
8:15 AM 62.8 °F 41.9 °F 46% 29.88 in 10.0 mi ENE 18.4 mph 23.0 mph N/A   Clear
8:35 AM 64.4 °F 42.1 °F 44% 29.89 in 10.0 mi ENE 21.9 mph 29.9 mph N/A   Clear
8:55 AM 65.7 °F 42.6 °F 43% 29.89 in 10.0 mi East 20.7 mph 28.8 mph N/A   Clear
9:15 AM 66.4 °F 41.9 °F 41% 29.91 in 10.0 mi ENE 20.7 mph 24.2 mph N/A   Clear
9:35 AM 67.5 °F 43.2 °F 41% 29.92 in 10.0 mi NE 21.9 mph 28.8 mph N/A   Clear
9:55 AM 68.4 °F 44.2 °F 42% 29.93 in 10.0 mi ENE 18.4 mph 25.3 mph N/A   Clear
10:15 AM 68.7 °F 43.7 °F 40% 29.93 in 10.0 mi NE 20.7 mph 25.3 mph N/A   Clear
10:35 AM 71.6 °F 42.3 °F 35% 29.93 in 10.0 mi ENE 19.6 mph 24.2 mph N/A   Clear
10:55 AM 72.5 °F 42.8 °F 34% 29.93 in 10.0 mi East 20.7 mph 25.3 mph N/A   Clear
11:15 AM 73.6 °F 41.5 °F 32% 29.92 in 10.0 mi East 24.2 mph 32.2 mph N/A   Clear
11:35 AM 74.8 °F 41.0 °F 30% 29.92 in 10.0 mi East 19.6 mph 26.5 mph N/A   Clear
11:55 AM 75.4 °F 41.2 °F 29% 29.92 in 10.0 mi East 18.4 mph 28.8 mph N/A   Clear
12:15 PM 75.7 °F 41.7 °F 30% 29.92 in 10.0 mi East 21.9 mph 28.8 mph N/A   Clear
12:35 PM 76.6 °F 40.8 °F 28% 29.90 in 10.0 mi East 25.3 mph 32.2 mph N/A   Clear
12:55 PM 77.2 °F 40.1 °F 26% 29.90 in 10.0 mi ENE 21.9 mph 29.9 mph N/A   Clear
1:15 PM 79.2 °F 41.2 °F 26% 29.89 in 10.0 mi East 19.6 mph 29.9 mph N/A   Clear
1:35 PM 78.8 °F 40.5 °F 25% 29.89 in 10.0 mi East 20.7 mph 27.6 mph N/A   Clear
1:55 PM 77.7 °F 39.7 °F 26% 29.89 in 10.0 mi East 19.6 mph 26.5 mph N/A   Clear
2:15 PM 76.8 °F 40.1 °F 27% 29.88 in 10.0 mi East 18.4 mph 24.2 mph N/A   Clear
2:35 PM 79.2 °F 43.2 °F 28% 29.88 in 10.0 mi East 19.6 mph - N/A   Clear
2:55 PM 78.4 °F 41.2 °F 26% 29.87 in 10.0 mi East 17.3 mph 21.9 mph N/A   Clear
3:15 PM 77.9 °F 39.7 °F 25% 29.87 in 10.0 mi East 16.1 mph - N/A   Clear
3:35 PM 78.6 °F 40.1 °F 25% 29.87 in 10.0 mi East 15.0 mph 21.9 mph N/A   Clear
3:55 PM 80.2 °F 40.3 °F 24% 29.86 in 10.0 mi East 20.7 mph 25.3 mph N/A   Clear
4:15 PM 80.1 °F 40.8 °F 25% 29.85 in 10.0 mi East 17.3 mph 25.3 mph N/A   Clear
4:35 PM 78.8 °F 41.4 °F 26% 29.85 in 10.0 mi East 17.3 mph 21.9 mph N/A   Clear
4:55 PM 79.2 °F 42.8 °F 27% 29.84 in 10.0 mi East 15.0 mph 20.7 mph N/A   Clear
5:15 PM 78.1 °F 43.7 °F 29% 29.83 in 10.0 mi East 16.1 mph - N/A   Clear
5:35 PM 81.5 °F 47.3 °F 30% 29.83 in 10.0 mi East 13.8 mph - N/A   Clear
5:55 PM 80.2 °F 45.7 °F 30% 29.83 in 10.0 mi East 16.1 mph - N/A   Clear
6:15 PM 81.0 °F 45.7 °F 29% 29.83 in 10.0 mi ENE 12.7 mph 20.7 mph N/A   Clear
6:35 PM 80.6 °F 45.5 °F 29% 29.82 in 10.0 mi East 19.6 mph - N/A   Clear
6:55 PM 79.7 °F 45.9 °F 30% 29.81 in 10.0 mi ENE 18.4 mph - N/A   Clear
7:15 PM 79.0 °F 44.4 °F 29% 29.81 in 10.0 mi ENE 16.1 mph - N/A   Clear
7:35 PM 78.1 °F 43.5 °F 29% 29.81 in 10.0 mi ENE 13.8 mph 24.2 mph N/A   Clear
7:55 PM 77.4 °F 43.9 °F 30% 29.80 in 10.0 mi ENE 15.0 mph 24.2 mph N/A   Clear
8:15 PM 75.9 °F 43.0 °F 31% 29.81 in 10.0 mi ENE 13.8 mph - N/A   Clear
8:35 PM 73.9 °F 42.8 °F 33% 29.82 in 10.0 mi ENE 12.7 mph - N/A   Clear
8:55 PM 72.5 °F 41.2 °F 32% 29.82 in 10.0 mi ENE 11.5 mph - N/A   Clear
9:15 PM 71.1 °F 40.6 °F 33% 29.83 in 10.0 mi NE 12.7 mph - N/A   Clear
9:35 PM 70.0 °F 40.3 °F 34% 29.83 in 10.0 mi NE 10.4 mph - N/A   Clear
9:55 PM 68.4 °F 41.0 °F 37% 29.84 in 10.0 mi ENE 9.2 mph - N/A   Clear
10:15 PM 65.7 °F 42.3 °F 43% 29.85 in 10.0 mi ENE 9.2 mph - N/A   Clear
10:35 PM 66.2 °F 41.5 °F 41% 29.85 in 10.0 mi ENE 10.4 mph - N/A   Clear
10:55 PM 66.9 °F 40.6 °F 38% 29.85 in 10.0 mi ENE 12.7 mph - N/A   Clear
11:15 PM 66.4 °F 40.1 °F 38% 29.85 in 10.0 mi ENE 11.5 mph - N/A   Clear
11:35 PM 66.4 °F 40.3 °F 38% 29.85 in 10.0 mi ENE 12.7 mph - N/A   Clear
11:55 PM 65.5 °F 40.8 °F 41% 29.85 in 10.0 mi East 12.7 mph - N/A   Clear